| time (UTC) | temp C | wind direction | speed KPH | gust KPH | rain 1hr cm | rain 24hr cm | rain mn cm | humidity % | barometer mb |
| 20260902160940 | 28 | 113 | 6.4 | 9.7 | 0.00 | 0.00 | 0.00 | 72 | 1017.5 |
| 20260902155939 | 28 | 143 | 4.8 | 12.9 | 0.00 | 0.00 | 0.00 | 69 | 1017.3 |
| 20260902154939 | 28 | 91 | 4.8 | 11.3 | 0.00 | 0.00 | 0.00 | 68 | 1017.3 |
| 20260902153939 | 28 | 88 | 6.4 | 12.9 | 0.00 | 0.00 | 0.00 | 67 | 1017.5 |
| 20260902151939 | 28 | 92 | 6.4 | 12.9 | 0.00 | 0.00 | 0.00 | 66 | 1017.4 |
| 20260902150940 | 28 | 99 | 6.4 | 12.9 | 0.00 | 0.00 | 0.00 | 64 | 1017.5 |
| 20260902145940 | 29 | 84 | 6.4 | 12.9 | 0.00 | 0.00 | 0.00 | 63 | 1017.5 |
| 20260902144939 | 29 | 108 | 4.8 | 14.5 | 0.00 | 0.00 | 0.00 | 65 | 1017.8 |
| 20260902143939 | 29 | 84 | 6.4 | 12.9 | 0.00 | 0.00 | 0.00 | 66 | 1017.7 |
| 20260902142939 | 29 | 89 | 3.2 | 17.7 | 0.00 | 0.00 | 0.00 | 65 | 1017.7 |
| 20260902140939 | 29 | 98 | 4.8 | 14.5 | 0.00 | 0.00 | 0.00 | 65 | 1018.0 |
| 20260902135939 | 29 | 110 | 6.4 | 12.9 | 0.00 | 0.00 | 0.00 | 66 | 1017.9 |
| 20260902134940 | 29 | 87 | 6.4 | 17.7 | 0.00 | 0.00 | 0.00 | 67 | 1018.1 |
| 20260902132939 | 30 | 84 | 11.3 | 17.7 | 0.00 | 0.00 | 0.00 | 67 | 1018.2 |
| 20260902131939 | 30 | 95 | 9.7 | 17.7 | 0.00 | 0.00 | 0.00 | 66 | 1018.3 |
| 20260902124939 | 29 | 106 | 6.4 | 17.7 | 0.00 | 0.00 | 0.00 | 68 | 1018.5 |
| 20260902123939 | 30 | 83 | 9.7 | 17.7 | 0.00 | 0.00 | 0.00 | 69 | 1018.7 |
| 20260902122939 | 29 | 100 | 11.3 | 14.5 | 0.00 | 0.00 | 0.00 | 69 | 1018.6 |
| 20260902121939 | 30 | 110 | 6.4 | 17.7 | 0.00 | 0.00 | 0.00 | 68 | 1018.9 |
| 20260902120939 | 30 | 94 | 6.4 | 14.5 | 0.00 | 0.00 | 0.00 | 67 | 1018.6 |
| 20260902115939 | 30 | 66 | 1.6 | 12.9 | 0.00 | 0.00 | 0.00 | 66 | 1018.7 |
| 20260902114939 | 30 | 94 | 3.2 | 11.3 | 0.00 | 0.00 | 0.00 | 67 | 1018.7 |
| 20260902113941 | 30 | 122 | 3.2 | 12.9 | 0.00 | 0.00 | 0.00 | 66 | 1018.6 |
| 20260902112939 | 30 | 99 | 3.2 | 14.5 | 0.00 | 0.00 | 0.00 | 65 | 1019.0 |
| 20260902111938 | 29 | 98 | 3.2 | 14.5 | 0.00 | 0.00 | 0.00 | 68 | 1019.0 |
| 20260902110939 | 29 | 93 | 9.7 | 20.9 | 0.00 | 0.00 | 0.00 | 70 | 1019.3 |
| 20260902105939 | 30 | 90 | 6.4 | 14.5 | 0.00 | 0.00 | 0.00 | 67 | 1019.1 |
| 20260902104938 | 30 | 88 | 8.0 | 17.7 | 0.00 | 0.00 | 0.00 | 66 | 1019.1 |
| 20260902103939 | 29 | 85 | 3.2 | 17.7 | 0.00 | 0.00 | 0.00 | 63 | 1019.1 |
| 20260902101938 | 29 | 65 | 6.4 | 20.9 | 0.00 | 0.00 | 0.00 | 65 | 1019.3 |
| 20260902100939 | 30 | 89 | 12.9 | 22.5 | 0.00 | 0.00 | 0.00 | 65 | 1019.3 |
| 20260902095939 | 30 | 96 | 8.0 | 17.7 | 0.00 | 0.00 | 0.00 | 64 | 1019.4 |
| 20260902094938 | 29 | 96 | 12.9 | 17.7 | 0.00 | 0.00 | 0.00 | 65 | 1019.4 |
| 20260902093939 | 29 | 97 | 4.8 | 17.7 | 0.00 | 0.00 | 0.00 | 63 | 1019.3 |
| 20260902092938 | 30 | 69 | 6.4 | 20.9 | 0.00 | 0.00 | 0.00 | 60 | 1019.1 |
| 20260902091938 | 30 | 87 | 1.6 | 17.7 | 0.00 | 0.00 | 0.00 | 53 | 1019.4 |
| 20260902090938 | 31 | 88 | 6.4 | 14.5 | 0.00 | 0.00 | 0.00 | 53 | 1019.1 |
| 20260902085939 | 30 | 77 | 8.0 | 14.5 | 0.00 | 0.00 | 0.00 | 55 | 1019.1 |
| 20260902084938 | 30 | 89 | 8.0 | 14.5 | 0.00 | 0.00 | 0.00 | 56 | 1019.0 |
| 20260902083938 | 30 | 53 | 8.0 | 14.5 | 0.00 | 0.00 | 0.00 | 57 | 1019.1 |
| 20260902082938 | 30 | 54 | 3.2 | 9.7 | 0.00 | 0.00 | 0.00 | 57 | 1019.0 |
| 20260902080938 | 30 | 83 | 3.2 | 9.7 | 0.00 | 0.00 | 0.00 | 62 | 1018.8 |
| 20260902075940 | 29 | 29 | 1.6 | 6.4 | 0.00 | 0.00 | 0.00 | 62 | 1018.9 |
| 20260902074937 | 29 | 45 | 3.2 | 6.4 | 0.00 | 0.00 | 0.00 | 62 | 1018.8 |
| 20260902073938 | 28 | 44 | 3.2 | 9.7 | 0.00 | 0.00 | 0.00 | 63 | 1018.7 |
| 20260902072937 | 28 | 26 | 3.2 | 6.4 | 0.00 | 0.00 | 0.00 | 62 | 1018.7 |
| 20260902071938 | 29 | 38 | 3.2 | 6.4 | 0.00 | 0.00 | 0.00 | 62 | 1018.6 |
| 20260902070937 | 28 | 0 | 0.0 | 3.2 | 0.00 | 0.00 | 0.00 | 50 | 1018.6 |
| 20260902065938 | 27 | 0 | 0.0 | 3.2 | 0.00 | 0.00 | 0.00 | 53 | 1018.7 |
| 20260902064938 | 26 | 166 | 1.6 | 3.2 | 0.00 | 0.00 | 0.00 | 59 | 1018.7 |
| 20260902062938 | 27 | 0 | 0.0 | 3.2 | 0.00 | 0.00 | 0.00 | 59 | 1018.7 |
| 20260902061938 | 27 | 0 | 0.0 | 3.2 | 0.00 | 0.00 | 0.00 | 47 | 1018.5 |
| 20260902060937 | 26 | 0 | 0.0 | 3.2 | 0.00 | 0.00 | 0.00 | 48 | 1018.6 |
| 20260902054938 | 26 | 249 | 3.2 | 3.2 | 0.00 | 0.00 | 0.00 | 45 | 1018.3 |
| 20260902053937 | 25 | 227 | 3.2 | 6.4 | 0.00 | 0.00 | 0.00 | 46 | 1018.3 |
| 20260902045938 | 25 | 285 | 3.2 | 3.2 | 0.00 | 0.00 | 0.00 | 48 | 1018.3 |
| 20260902044937 | 25 | 269 | 3.2 | 3.2 | 0.00 | 0.00 | 0.00 | 49 | 1018.2 |
| 20260902043937 | 25 | 292 | 3.2 | 6.4 | 0.00 | 0.00 | 0.00 | 48 | 1017.8 |
| 20260902042937 | 26 | 272 | 3.2 | 6.4 | 0.00 | 0.00 | 0.00 | 46 | 1018.0 |
| 20260902041937 | 26 | 273 | 3.2 | 6.4 | 0.00 | 0.00 | 0.00 | 47 | 1018.0 |
| 20260902035938 | 25 | 288 | 3.2 | 6.4 | 0.00 | 0.00 | 0.00 | 48 | 1017.8 |
| 20260902034937 | 26 | 279 | 3.2 | 6.4 | 0.00 | 0.00 | 0.00 | 47 | 1017.7 |
| 20260902033937 | 25 | 270 | 3.2 | 3.2 | 0.00 | 0.00 | 0.00 | 47 | 1017.6 |
| 20260902032937 | 26 | 316 | 1.6 | 3.2 | 0.00 | 0.00 | 0.00 | 46 | 1017.7 |
| 20260902031937 | 26 | 0 | 0.0 | 6.4 | 0.00 | 0.00 | 0.00 | 45 | 1017.6 |
| 20260902025938 | 26 | 225 | 3.2 | 6.4 | 0.00 | 0.00 | 0.00 | 44 | 1017.6 |
| 20260902024937 | 26 | 269 | 3.2 | 6.4 | 0.00 | 0.00 | 0.00 | 45 | 1017.9 |
| 20260902023937 | 26 | 232 | 3.2 | 3.2 | 0.00 | 0.00 | 0.00 | 45 | 1017.7 |
| 20260902022937 | 26 | 269 | 3.2 | 6.4 | 0.00 | 0.00 | 0.00 | 45 | 1017.7 |
| 20260902021937 | 26 | 278 | 3.2 | 3.2 | 0.00 | 0.00 | 0.00 | 46 | 1017.8 |
| 20260902020937 | 25 | 269 | 3.2 | 3.2 | 0.00 | 0.00 | 0.00 | 48 | 1017.7 |
| 20260902015938 | 25 | 0 | 0.0 | 6.4 | 0.00 | 0.00 | 0.00 | 48 | 1017.9 |
| 20260902014937 | 26 | 281 | 3.2 | 6.4 | 0.00 | 0.00 | 0.00 | 48 | 1017.9 |
| 20260902013936 | 25 | 276 | 3.2 | 6.4 | 0.00 | 0.00 | 0.00 | 50 | 1017.6 |
| 20260902012937 | 25 | 288 | 3.2 | 6.4 | 0.00 | 0.00 | 0.00 | 50 | 1017.8 |
| 20260902010936 | 25 | 306 | 3.2 | 6.4 | 0.00 | 0.00 | 0.00 | 52 | 1017.7 |
| 20260902004937 | 26 | 276 | 3.2 | 3.2 | 0.00 | 0.00 | 0.00 | 49 | 1017.7 |
| 20260902003937 | 26 | 285 | 3.2 | 3.2 | 0.00 | 0.00 | 0.00 | 48 | 1017.7 |
| 20260902002936 | 26 | 275 | 1.6 | 6.4 | 0.00 | 0.00 | 0.00 | 47 | 1017.9 |
| 20260902001937 | 27 | 275 | 3.2 | 6.4 | 0.00 | 0.00 | 0.00 | 45 | 1017.9 |
| 20260901235937 | 27 | 276 | 3.2 | 6.4 | 0.00 | 0.00 | 0.00 | 44 | 1017.9 |
| 20260901234937 | 26 | 285 | 3.2 | 6.4 | 0.00 | 0.00 | 0.00 | 44 | 1018.1 |
| 20260901233936 | 27 | 277 | 3.2 | 6.4 | 0.00 | 0.00 | 0.00 | 46 | 1018.1 |
| 20260901232936 | 26 | 279 | 3.2 | 6.4 | 0.00 | 0.00 | 0.00 | 44 | 1018.2 |
| 20260901231936 | 27 | 226 | 3.2 | 6.4 | 0.00 | 0.00 | 0.00 | 43 | 1018.1 |
| 20260901230936 | 27 | 235 | 3.2 | 6.4 | 0.00 | 0.00 | 0.00 | 44 | 1018.0 |
| 20260901224936 | 26 | 0 | 0.0 | 6.4 | 0.00 | 0.00 | 0.00 | 45 | 1018.1 |
| 20260901223936 | 27 | 280 | 3.2 | 6.4 | 0.00 | 0.00 | 0.00 | 44 | 1018.2 |
| 20260901222936 | 27 | 268 | 4.8 | 6.4 | 0.00 | 0.00 | 0.00 | 44 | 1018.1 |
| 20260901221936 | 28 | 235 | 3.2 | 6.4 | 0.00 | 0.00 | 0.00 | 41 | 1018.2 |
| 20260901220936 | 28 | 229 | 3.2 | 6.4 | 0.00 | 0.00 | 0.00 | 40 | 1018.4 |
| 20260901214936 | 26 | 265 | 3.2 | 3.2 | 0.00 | 0.00 | 0.00 | 49 | 1018.3 |
| 20260901212936 | 27 | 238 | 1.6 | 9.7 | 0.00 | 0.00 | 0.00 | 54 | 1018.4 |
| 20260901211936 | 26 | 209 | 3.2 | 6.4 | 0.00 | 0.00 | 0.00 | 57 | 1018.5 |
| 20260901210936 | 26 | 249 | 1.6 | 6.4 | 0.00 | 0.00 | 0.00 | 58 | 1018.4 |
| 20260901205936 | 26 | 269 | 3.2 | 6.4 | 0.00 | 0.00 | 0.00 | 59 | 1018.6 |
| 20260901203936 | 25 | 276 | 3.2 | 6.4 | 0.00 | 0.00 | 0.00 | 66 | 1018.4 |
| 20260901202936 | 25 | 274 | 4.8 | 6.4 | 0.00 | 0.00 | 0.00 | 69 | 1018.5 |
| 20260901201935 | 25 | 263 | 1.6 | 3.2 | 0.00 | 0.00 | 0.00 | 69 | 1018.5 |
| 20260901200935 | 25 | 0 | 0.0 | 3.2 | 0.00 | 0.00 | 0.00 | 69 | 1018.5 |
| 20260901195936 | 25 | 278 | 3.2 | 3.2 | 0.00 | 0.00 | 0.00 | 69 | 1018.5 |
| 20260901194936 | 25 | 261 | 3.2 | 6.4 | 0.00 | 0.00 | 0.00 | 70 | 1018.5 |
| 20260901193936 | 25 | 270 | 3.2 | 6.4 | 0.00 | 0.00 | 0.00 | 70 | 1018.2 |
| 20260901192936 | 25 | 0 | 0.0 | 3.2 | 0.00 | 0.00 | 0.00 | 71 | 1017.9 |
| 20260901191936 | 25 | 267 | 1.6 | 3.2 | 0.00 | 0.00 | 0.00 | 71 | 1018.1 |
| 20260901190935 | 25 | 0 | 0.0 | 3.2 | 0.00 | 0.00 | 0.00 | 72 | 1018.1 |
| 20260901185937 | 25 | 274 | 3.2 | 3.2 | 0.00 | 0.00 | 0.00 | 72 | 1017.8 |
| 20260901184935 | 25 | 269 | 1.6 | 3.2 | 0.00 | 0.00 | 0.00 | 72 | 1017.9 |
| 20260901183936 | 25 | 248 | 1.6 | 3.2 | 0.00 | 0.00 | 0.00 | 72 | 1017.8 |
| 20260901182936 | 25 | 248 | 1.6 | 3.2 | 0.00 | 0.00 | 0.00 | 71 | 1017.8 |
| 20260901181937 | 25 | 0 | 0.0 | 3.2 | 0.00 | 0.00 | 0.00 | 71 | 1017.6 |
| 20260901175939 | 26 | 0 | 0.0 | 3.2 | 0.00 | 0.00 | 0.00 | 69 | 1017.4 |
| 20260901174938 | 26 | 0 | 0.0 | 3.2 | 0.00 | 0.00 | 0.00 | 69 | 1017.5 |
| 20260901173939 | 26 | 0 | 0.0 | 3.2 | 0.00 | 0.00 | 0.00 | 67 | 1017.5 |
| 20260901172938 | 26 | 0 | 0.0 | 6.4 | 0.00 | 0.00 | 0.00 | 66 | 1017.4 |
| 20260901171939 | 27 | 354 | 3.2 | 6.4 | 0.00 | 0.00 | 0.00 | 65 | 1017.5 |
| 20260901170940 | 27 | 0 | 0.0 | 3.2 | 0.00 | 0.00 | 0.00 | 63 | 1017.5 |
| 20260901165940 | 27 | 0 | 0.0 | 6.4 | 0.00 | 0.00 | 0.00 | 63 | 1017.5 |
| 20260901164940 | 27 | 75 | 3.2 | 11.3 | 0.00 | 0.00 | 0.00 | 62 | 1017.5 |
| 20260901163941 | 28 | 105 | 3.2 | 6.4 | 0.00 | 0.00 | 0.00 | 63 | 1017.4 |
| 20260901162941 | 27 | 106 | 3.2 | 9.7 | 0.00 | 0.00 | 0.00 | 64 | 1017.6 |